contact:dominique.lefevre@mio.osupytheas.fr, maurice.libes@osupytheas.fr, didier.mallarino@osupytheas.fr
Project:EMSO http://www.emso-fr.org/EMSO-France
Depth: 2436.0 m
Title:EMSO Ligure Ouest : Data MII capteur MICROCAT
DateTime_Computer,Latitude,Longitude,Temperature,Conductivity,Pressure,DateTime_Instrument
DateTime_Computer,Latitude,Longitude,degC,S m-1,dbar,DateTime_Instrument
2022-03-30T00:02:37Z,42.805,6.029,13.3029,4.60064,2470.227,2022-3-30T02:04:14Z
2022-03-30T00:05:41Z,42.805,6.029,13.3026,4.60061,2470.273,2022-3-30T02:07:18Z
2022-03-30T00:08:44Z,42.805,6.029,13.3033,4.60069,2470.273,2022-3-30T02:10:21Z
2022-03-30T00:11:47Z,42.805,6.029,13.3028,4.60067,2470.24,2022-3-30T02:13:24Z
2022-03-30T00:14:50Z,42.805,6.029,13.3030,4.60075,2470.24,2022-3-30T02:16:27Z
2022-03-30T00:17:53Z,42.805,6.029,13.3029,4.60075,2470.25,2022-3-30T02:19:30Z
2022-03-30T00:20:56Z,42.805,6.029,13.3028,4.60074,2470.264,2022-3-30T02:22:33Z
2022-03-30T00:23:59Z,42.805,6.029,13.3026,4.60062,2470.264,2022-3-30T02:25:36Z
2022-03-30T00:27:02Z,42.805,6.029,13.3034,4.60062,2470.227,2022-3-30T02:28:39Z
2022-03-30T00:30:06Z,42.805,6.029,13.3035,4.60074,2470.24,2022-3-30T02:31:43Z
2022-03-30T00:33:09Z,42.805,6.029,13.3029,4.60067,2470.25,2022-3-30T02:34:46Z
2022-03-30T00:36:12Z,42.805,6.029,13.3045,4.60074,2470.203,2022-3-30T02:37:49Z
2022-03-30T00:39:15Z,42.805,6.029,13.3032,4.60072,2470.25,2022-3-30T02:40:52Z
2022-03-30T00:42:18Z,42.805,6.029,13.3026,4.60061,2470.25,2022-3-30T02:43:55Z
2022-03-30T00:45:21Z,42.805,6.029,13.3032,4.60067,2470.24,2022-3-30T02:46:58Z
2022-03-30T00:48:24Z,42.805,6.029,13.3031,4.60068,2470.25,2022-3-30T02:50:01Z
2022-03-30T00:51:27Z,42.805,6.029,13.3041,4.60090,2470.25,2022-3-30T02:53:04Z
2022-03-30T00:54:30Z,42.805,6.029,13.3028,4.60065,2470.25,2022-3-30T02:56:08Z
2022-03-30T00:57:34Z,42.805,6.029,13.3040,4.60091,2470.273,2022-3-30T02:59:11Z
2022-03-30T01:00:37Z,42.805,6.029,13.3031,4.60066,2470.264,2022-3-30T03:02:14Z
2022-03-30T01:03:40Z,42.805,6.029,13.3043,4.60081,2470.264,2022-3-30T03:05:17Z
2022-03-30T01:06:43Z,42.805,6.029,13.3036,4.60066,2470.264,2022-3-30T03:08:20Z
2022-03-30T01:09:46Z,42.805,6.029,13.3040,4.60077,2470.25,2022-3-30T03:11:23Z
2022-03-30T01:12:49Z,42.805,6.029,13.3029,4.60062,2470.264,2022-3-30T03:14:26Z
2022-03-30T01:15:52Z,42.805,6.029,13.3043,4.60080,2470.264,2022-3-30T03:17:29Z
2022-03-30T01:18:55Z,42.805,6.029,13.3024,4.60069,2470.273,2022-3-30T03:20:33Z
2022-03-30T01:21:59Z,42.805,6.029,13.3031,4.60064,2470.264,2022-3-30T03:23:36Z
2022-03-30T01:25:02Z,42.805,6.029,13.3025,4.60064,2470.24,2022-3-30T03:26:39Z
2022-03-30T01:28:05Z,42.805,6.029,13.3026,4.60072,2470.273,2022-3-30T03:29:42Z
2022-03-30T01:31:08Z,42.805,6.029,13.3042,4.60084,2470.25,2022-3-30T03:32:45Z
2022-03-30T01:34:11Z,42.805,6.029,13.3034,4.60073,2470.264,2022-3-30T03:35:48Z
2022-03-30T01:37:14Z,42.805,6.029,13.3040,4.60093,2470.25,2022-3-30T03:38:51Z
2022-03-30T01:40:17Z,42.805,6.029,13.3046,4.60079,2470.25,2022-3-30T03:41:54Z
2022-03-30T01:43:20Z,42.805,6.029,13.3039,4.60084,2470.25,2022-3-30T03:44:57Z
2022-03-30T01:46:24Z,42.805,6.029,13.3047,4.60088,2470.297,2022-3-30T03:48:01Z
2022-03-30T01:49:27Z,42.805,6.029,13.3050,4.60090,2470.273,2022-3-30T03:51:04Z
2022-03-30T01:52:30Z,42.805,6.029,13.3041,4.60084,2470.25,2022-3-30T03:54:07Z
2022-03-30T01:55:33Z,42.805,6.029,13.3043,4.60082,2470.287,2022-3-30T03:57:10Z
2022-03-30T01:58:36Z,42.805,6.029,13.3048,4.60088,2470.273,2022-3-30T04:00:13Z
2022-03-30T02:01:39Z,42.805,6.029,13.3047,4.60084,2470.264,2022-3-30T04:03:16Z
2022-03-30T02:04:42Z,42.805,6.029,13.3046,4.60093,2470.297,2022-3-30T04:06:19Z
2022-03-30T02:07:45Z,42.805,6.029,13.3036,4.60106,2470.287,2022-3-30T04:09:22Z
2022-03-30T02:10:48Z,42.805,6.029,13.3041,4.60106,2470.283,2022-3-30T04:12:26Z
2022-03-30T02:13:52Z,42.805,6.029,13.3048,4.60088,2470.297,2022-3-30T04:15:29Z
2022-03-30T02:16:55Z,42.805,6.029,13.3040,4.60102,2470.297,2022-3-30T04:18:32Z
2022-03-30T02:19:58Z,42.805,6.029,13.3048,4.60104,2470.25,2022-3-30T04:21:35Z
2022-03-30T02:23:01Z,42.805,6.029,13.3038,4.60095,2470.31,2022-3-30T04:24:38Z
2022-03-30T02:26:04Z,42.805,6.029,13.3041,4.60099,2470.297,2022-3-30T04:27:41Z
2022-03-30T02:29:07Z,42.805,6.029,13.3039,4.60094,2470.343,2022-3-30T04:30:44Z
2022-03-30T02:32:10Z,42.805,6.029,13.3035,4.60099,2470.32,2022-3-30T04:33:47Z
2022-03-30T02:35:13Z,42.805,6.029,13.3042,4.60117,2470.334,2022-3-30T04:36:51Z
2022-03-30T02:38:17Z,42.805,6.029,13.3040,4.60096,2470.32,2022-3-30T04:39:54Z
2022-03-30T02:41:20Z,42.805,6.029,13.3036,4.60101,2470.334,2022-3-30T04:42:57Z
2022-03-30T02:44:23Z,42.805,6.029,13.3047,4.60097,2470.31,2022-3-30T04:46:00Z
2022-03-30T02:47:26Z,42.805,6.029,13.3036,4.60091,2470.32,2022-3-30T04:49:03Z
2022-03-30T02:50:29Z,42.805,6.029,13.3036,4.60084,2470.32,2022-3-30T04:52:06Z
2022-03-30T02:53:32Z,42.805,6.029,13.3041,4.60089,2470.343,2022-3-30T04:55:09Z
2022-03-30T02:56:35Z,42.805,6.029,13.3038,4.60104,2470.32,2022-3-30T04:58:12Z
2022-03-30T02:59:38Z,42.805,6.029,13.3034,4.60085,2470.32,2022-3-30T05:01:16Z
2022-03-30T03:02:42Z,42.805,6.029,13.3036,4.60097,2470.357,2022-3-30T05:04:19Z
2022-03-30T03:05:45Z,42.805,6.029,13.3040,4.60101,2470.343,2022-3-30T05:07:22Z
2022-03-30T03:08:48Z,42.805,6.029,13.3039,4.60102,2470.357,2022-3-30T05:10:25Z
2022-03-30T03:11:51Z,42.805,6.029,13.3032,4.60110,2470.366,2022-3-30T05:13:28Z
2022-03-30T03:14:54Z,42.805,6.029,13.3039,4.60133,2470.32,2022-3-30T05:16:31Z
2022-03-30T03:17:57Z,42.805,6.029,13.3041,4.60110,2470.38,2022-3-30T05:19:34Z
2022-03-30T03:21:00Z,42.805,6.029,13.3037,4.60099,2470.38,2022-3-30T05:22:37Z
2022-03-30T03:24:03Z,42.805,6.029,13.3034,4.60092,2470.357,2022-3-30T05:25:40Z
2022-03-30T03:27:06Z,42.805,6.029,13.3034,4.60086,2470.404,2022-3-30T05:28:44Z
2022-03-30T03:30:10Z,42.805,6.029,13.3037,4.60095,2470.404,2022-3-30T05:31:47Z
2022-03-30T03:33:13Z,42.805,6.029,13.3043,4.60105,2470.404,2022-3-30T05:34:50Z
2022-03-30T03:36:16Z,42.805,6.029,13.3051,4.60098,2470.366,2022-3-30T05:37:53Z
2022-03-30T03:39:19Z,42.805,6.029,13.3042,4.60087,2470.38,2022-3-30T05:40:56Z
2022-03-30T03:42:22Z,42.805,6.029,13.3039,4.60083,2470.366,2022-3-30T05:43:59Z
2022-03-30T03:45:25Z,42.805,6.029,13.3037,4.60097,2470.366,2022-3-30T05:47:02Z
2022-03-30T03:48:28Z,42.805,6.029,13.3041,4.60081,2470.366,2022-3-30T05:50:05Z
2022-03-30T03:51:31Z,42.805,6.029,13.3038,4.60107,2470.39,2022-3-30T05:53:09Z
2022-03-30T03:54:35Z,42.805,6.029,13.3034,4.60114,2470.404,2022-3-30T05:56:12Z
2022-03-30T03:57:38Z,42.805,6.029,13.3034,4.60077,2470.427,2022-3-30T05:59:15Z
2022-03-30T04:00:41Z,42.805,6.029,13.3037,4.60096,2470.39,2022-3-30T06:02:18Z
2022-03-30T04:03:44Z,42.805,6.029,13.3034,4.60102,2470.427,2022-3-30T06:05:21Z
2022-03-30T04:06:47Z,42.805,6.029,13.3039,4.60074,2470.366,2022-3-30T06:08:24Z
2022-03-30T04:09:50Z,42.805,6.029,13.3038,4.60081,2470.413,2022-3-30T06:11:27Z
2022-03-30T04:12:53Z,42.805,6.029,13.3039,4.60082,2470.437,2022-3-30T06:14:30Z
2022-03-30T04:15:56Z,42.805,6.029,13.3039,4.60103,2470.413,2022-3-30T06:17:33Z
2022-03-30T04:19:00Z,42.805,6.029,13.3041,4.60078,2470.427,2022-3-30T06:20:37Z
2022-03-30T04:22:03Z,42.805,6.029,13.3035,4.60095,2470.413,2022-3-30T06:23:40Z
2022-03-30T04:25:06Z,42.805,6.029,13.3043,4.60106,2470.45,2022-3-30T06:26:43Z
2022-03-30T04:28:09Z,42.805,6.029,13.3041,4.60117,2470.413,2022-3-30T06:29:46Z
2022-03-30T04:31:12Z,42.805,6.029,13.3036,4.60092,2470.413,2022-3-30T06:32:49Z
2022-03-30T04:34:15Z,42.805,6.029,13.3034,4.60104,2470.474,2022-3-30T06:35:52Z
2022-03-30T04:37:18Z,42.805,6.029,13.3034,4.60098,2470.437,2022-3-30T06:38:55Z
2022-03-30T04:40:21Z,42.805,6.029,13.3046,4.60097,2470.46,2022-3-30T06:41:59Z
2022-03-30T04:43:25Z,42.805,6.029,13.3036,4.60084,2470.427,2022-3-30T06:45:02Z
2022-03-30T04:46:28Z,42.805,6.029,13.3034,4.60094,2470.437,2022-3-30T06:48:05Z
2022-03-30T04:49:31Z,42.805,6.029,13.3031,4.60083,2470.427,2022-3-30T06:51:08Z
2022-03-30T04:52:34Z,42.805,6.029,13.3035,4.60094,2470.45,2022-3-30T06:54:11Z
2022-03-30T04:55:37Z,42.805,6.029,13.3041,4.60084,2470.46,2022-3-30T06:57:14Z
2022-03-30T04:58:40Z,42.805,6.029,13.3029,4.60088,2470.46,2022-3-30T07:00:17Z
2022-03-30T05:01:43Z,42.805,6.029,13.3036,4.60098,2470.437,2022-3-30T07:03:20Z
2022-03-30T05:04:46Z,42.805,6.029,13.3036,4.60097,2470.45,2022-3-30T07:06:23Z
2022-03-30T05:07:49Z,42.805,6.029,13.3036,4.60077,2470.46,2022-3-30T07:09:27Z
2022-03-30T05:10:53Z,42.805,6.029,13.3036,4.60076,2470.437,2022-3-30T07:12:30Z
2022-03-30T05:13:56Z,42.805,6.029,13.3038,4.60108,2470.437,2022-3-30T07:15:33Z
2022-03-30T05:16:59Z,42.805,6.029,13.3031,4.60081,2470.483,2022-3-30T07:18:36Z
2022-03-30T05:20:02Z,42.805,6.029,13.3033,4.60104,2470.46,2022-3-30T07:21:39Z
2022-03-30T05:23:05Z,42.805,6.029,13.3035,4.60092,2470.474,2022-3-30T07:24:42Z
2022-03-30T05:26:08Z,42.805,6.029,13.3034,4.60121,2470.46,2022-3-30T07:27:45Z
2022-03-30T05:29:11Z,42.805,6.029,13.3033,4.60082,2470.45,2022-3-30T07:30:48Z
2022-03-30T05:32:14Z,42.805,6.029,13.3032,4.60075,2470.46,2022-3-30T07:33:52Z
2022-03-30T05:35:18Z,42.805,6.029,13.3026,4.60079,2470.46,2022-3-30T07:36:55Z
2022-03-30T05:38:21Z,42.805,6.029,13.3034,4.60089,2470.497,2022-3-30T07:39:58Z
2022-03-30T05:41:24Z,42.805,6.029,13.3027,4.60082,2470.474,2022-3-30T07:43:01Z
2022-03-30T05:44:27Z,42.805,6.029,13.3034,4.60087,2470.437,2022-3-30T07:46:04Z
2022-03-30T05:47:30Z,42.805,6.029,13.3034,4.60085,2470.474,2022-3-30T07:49:07Z
2022-03-30T05:50:33Z,42.805,6.029,13.3034,4.60092,2470.483,2022-3-30T07:52:10Z
2022-03-30T05:53:36Z,42.805,6.029,13.3031,4.60085,2470.46,2022-3-30T07:55:13Z
2022-03-30T05:56:39Z,42.805,6.029,13.3032,4.60093,2470.497,2022-3-30T07:58:17Z
2022-03-30T05:59:43Z,42.805,6.029,13.3032,4.60099,2470.46,2022-3-30T08:01:20Z
2022-03-30T06:02:46Z,42.805,6.029,13.3030,4.60094,2470.437,2022-3-30T08:04:23Z
2022-03-30T06:05:49Z,42.805,6.029,13.3030,4.60097,2470.474,2022-3-30T08:07:26Z
2022-03-30T06:08:52Z,42.805,6.029,13.3050,4.60077,2470.507,2022-3-30T08:10:29Z
2022-03-30T06:11:55Z,42.805,6.029,13.3028,4.60086,2470.483,2022-3-30T08:13:32Z
2022-03-30T06:14:58Z,42.805,6.029,13.3029,4.60088,2470.483,2022-3-30T08:16:35Z
2022-03-30T06:18:01Z,42.805,6.029,13.3036,4.60104,2470.483,2022-3-30T08:19:38Z
2022-03-30T06:21:04Z,42.805,6.029,13.3040,4.60074,2470.45,2022-3-30T08:22:41Z
2022-03-30T06:24:08Z,42.805,6.029,13.3034,4.60095,2470.474,2022-3-30T08:25:45Z
2022-03-30T06:27:11Z,42.805,6.029,13.3039,4.60070,2470.474,2022-3-30T08:28:48Z
2022-03-30T06:30:14Z,42.805,6.029,13.3036,4.60074,2470.46,2022-3-30T08:31:51Z
2022-03-30T06:33:17Z,42.805,6.029,13.3036,4.60086,2470.437,2022-3-30T08:34:54Z
2022-03-30T06:36:20Z,42.805,6.029,13.3037,4.60073,2470.497,2022-3-30T08:37:57Z
2022-03-30T06:39:23Z,42.805,6.029,13.3029,4.60084,2470.474,2022-3-30T08:41:00Z
2022-03-30T06:42:26Z,42.805,6.029,13.3029,4.60075,2470.46,2022-3-30T08:44:03Z
2022-03-30T06:45:29Z,42.805,6.029,13.3029,4.60090,2470.45,2022-3-30T08:47:06Z
2022-03-30T06:48:32Z,42.805,6.029,13.3036,4.60092,2470.474,2022-3-30T08:50:10Z
2022-03-30T06:51:36Z,42.805,6.029,13.3034,4.60106,2470.437,2022-3-30T08:53:13Z
2022-03-30T06:54:39Z,42.805,6.029,13.3036,4.60093,2470.483,2022-3-30T08:56:16Z
2022-03-30T06:57:42Z,42.805,6.029,13.3041,4.60085,2470.437,2022-3-30T08:59:19Z
2022-03-30T07:00:45Z,42.805,6.029,13.3029,4.60079,2470.483,2022-3-30T09:02:22Z
2022-03-30T07:03:48Z,42.805,6.029,13.3027,4.60089,2470.45,2022-3-30T09:05:25Z
2022-03-30T07:06:51Z,42.805,6.029,13.3024,4.60084,2470.483,2022-3-30T09:08:28Z
2022-03-30T07:09:54Z,42.805,6.029,13.3031,4.60076,2470.497,2022-3-30T09:11:31Z
2022-03-30T07:12:57Z,42.805,6.029,13.3033,4.60087,2470.46,2022-3-30T09:14:35Z
2022-03-30T07:16:01Z,42.805,6.029,13.3034,4.60089,2470.497,2022-3-30T09:17:38Z
2022-03-30T07:19:04Z,42.805,6.029,13.3036,4.60086,2470.483,2022-3-30T09:20:41Z
2022-03-30T07:22:07Z,42.805,6.029,13.3032,4.60084,2470.474,2022-3-30T09:23:44Z
2022-03-30T07:25:10Z,42.805,6.029,13.3029,4.60087,2470.474,2022-3-30T09:26:47Z
2022-03-30T07:28:13Z,42.805,6.029,13.3029,4.60069,2470.437,2022-3-30T09:29:50Z
2022-03-30T07:31:16Z,42.805,6.029,13.3029,4.60094,2470.46,2022-3-30T09:32:53Z
2022-03-30T07:34:19Z,42.805,6.029,13.3036,4.60073,2470.437,2022-3-30T09:35:56Z
2022-03-30T07:37:22Z,42.805,6.029,13.3033,4.60073,2470.46,2022-3-30T09:39:00Z
2022-03-30T07:40:26Z,42.805,6.029,13.3027,4.60075,2470.46,2022-3-30T09:42:03Z
2022-03-30T07:43:29Z,42.805,6.029,13.3026,4.60084,2470.437,2022-3-30T09:45:06Z
2022-03-30T07:46:32Z,42.805,6.029,13.3038,4.60097,2470.413,2022-3-30T09:48:09Z
2022-03-30T07:49:35Z,42.805,6.029,13.3024,4.60080,2470.437,2022-3-30T09:51:12Z
2022-03-30T07:52:38Z,42.805,6.029,13.3030,4.60077,2470.46,2022-3-30T09:54:15Z
2022-03-30T07:55:41Z,42.805,6.029,13.3035,4.60102,2470.427,2022-3-30T09:57:18Z
2022-03-30T07:58:44Z,42.805,6.029,13.3032,4.60080,2470.45,2022-3-30T10:00:21Z
2022-03-30T08:01:47Z,42.805,6.029,13.3034,4.60075,2470.413,2022-3-30T10:03:24Z
2022-03-30T08:04:51Z,42.805,6.029,13.3036,4.60081,2470.45,2022-3-30T10:06:28Z
2022-03-30T08:07:54Z,42.805,6.029,13.3032,4.60081,2470.427,2022-3-30T10:09:31Z
2022-03-30T08:10:57Z,42.805,6.029,13.3043,4.60083,2470.45,2022-3-30T10:12:34Z
2022-03-30T08:14:00Z,42.805,6.029,13.3032,4.60092,2470.39,2022-3-30T10:15:37Z
2022-03-30T08:17:03Z,42.805,6.029,13.3026,4.60075,2470.45,2022-3-30T10:18:40Z
2022-03-30T08:20:06Z,42.805,6.029,13.3027,4.60084,2470.437,2022-3-30T10:21:43Z
2022-03-30T08:23:09Z,42.805,6.029,13.3028,4.60077,2470.413,2022-3-30T10:24:46Z
2022-03-30T08:26:12Z,42.805,6.029,13.3034,4.60086,2470.413,2022-3-30T10:27:49Z
2022-03-30T08:29:16Z,42.805,6.029,13.3033,4.60099,2470.413,2022-3-30T10:30:53Z
2022-03-30T08:32:19Z,42.805,6.029,13.3039,4.60094,2470.413,2022-3-30T10:33:56Z
2022-03-30T08:35:22Z,42.805,6.029,13.3030,4.60085,2470.427,2022-3-30T10:36:59Z
2022-03-30T08:38:25Z,42.805,6.029,13.3031,4.60091,2470.427,2022-3-30T10:40:02Z
2022-03-30T08:41:28Z,42.805,6.029,13.3031,4.60070,2470.413,2022-3-30T10:43:05Z
2022-03-30T08:44:31Z,42.805,6.029,13.3036,4.60067,2470.413,2022-3-30T10:46:08Z
2022-03-30T08:47:34Z,42.805,6.029,13.3032,4.60079,2470.437,2022-3-30T10:49:11Z
2022-03-30T08:50:37Z,42.805,6.029,13.3036,4.60068,2470.39,2022-3-30T10:52:14Z
2022-03-30T08:53:41Z,42.805,6.029,13.3024,4.60074,2470.366,2022-3-30T10:55:18Z
2022-03-30T08:56:44Z,42.805,6.029,13.3028,4.60078,2470.413,2022-3-30T10:58:21Z
2022-03-30T08:59:47Z,42.805,6.029,13.3027,4.60079,2470.413,2022-3-30T11:01:24Z
2022-03-30T09:02:50Z,42.805,6.029,13.3039,4.60075,2470.366,2022-3-30T11:04:27Z
2022-03-30T09:05:53Z,42.805,6.029,13.3028,4.60074,2470.427,2022-3-30T11:07:30Z
2022-03-30T09:08:56Z,42.805,6.029,13.3022,4.60062,2470.427,2022-3-30T11:10:33Z
2022-03-30T09:11:59Z,42.805,6.029,13.3036,4.60071,2470.39,2022-3-30T11:13:36Z
2022-03-30T09:15:02Z,42.805,6.029,13.3034,4.60074,2470.404,2022-3-30T11:16:40Z
2022-03-30T09:18:06Z,42.805,6.029,13.3029,4.60075,2470.427,2022-3-30T11:19:43Z
2022-03-30T09:21:09Z,42.805,6.029,13.3025,4.60076,2470.39,2022-3-30T11:22:46Z
2022-03-30T09:24:12Z,42.805,6.029,13.3022,4.60089,2470.39,2022-3-30T11:25:49Z
2022-03-30T09:27:15Z,42.805,6.029,13.3033,4.60077,2470.38,2022-3-30T11:28:52Z
2022-03-30T09:30:18Z,42.805,6.029,13.3036,4.60092,2470.366,2022-3-30T11:31:55Z
2022-03-30T09:33:21Z,42.805,6.029,13.3034,4.60080,2470.404,2022-3-30T11:34:58Z
2022-03-30T09:36:24Z,42.805,6.029,13.3037,4.60078,2470.357,2022-3-30T11:38:01Z
2022-03-30T09:39:27Z,42.805,6.029,13.3041,4.60069,2470.38,2022-3-30T11:41:04Z
2022-03-30T09:42:31Z,42.805,6.029,13.3029,4.60087,2470.357,2022-3-30T11:44:08Z
2022-03-30T09:45:34Z,42.805,6.029,13.3031,4.60074,2470.39,2022-3-30T11:47:11Z
2022-03-30T09:48:37Z,42.805,6.029,13.3046,4.60087,2470.366,2022-3-30T11:50:14Z
2022-03-30T09:51:40Z,42.805,6.029,13.3028,4.60066,2470.343,2022-3-30T11:53:17Z
2022-03-30T09:54:43Z,42.805,6.029,13.3029,4.60074,2470.357,2022-3-30T11:56:20Z
2022-03-30T09:57:46Z,42.805,6.029,13.3023,4.60074,2470.353,2022-3-30T11:59:23Z
2022-03-30T10:00:49Z,42.805,6.029,13.3036,4.60081,2470.38,2022-3-30T12:02:26Z
2022-03-30T10:03:52Z,42.805,6.029,13.3035,4.60086,2470.297,2022-3-30T12:05:30Z
2022-03-30T10:06:56Z,42.805,6.029,13.3033,4.60067,2470.334,2022-3-30T12:08:33Z
2022-03-30T10:09:59Z,42.805,6.029,13.3034,4.60081,2470.366,2022-3-30T12:11:36Z
2022-03-30T10:13:02Z,42.805,6.029,13.3029,4.60065,2470.343,2022-3-30T12:14:39Z
2022-03-30T10:16:05Z,42.805,6.029,13.3025,4.60081,2470.357,2022-3-30T12:17:42Z
2022-03-30T10:19:08Z,42.805,6.029,13.3030,4.60072,2470.32,2022-3-30T12:20:45Z
2022-03-30T10:22:11Z,42.805,6.029,13.3032,4.60083,2470.32,2022-3-30T12:23:48Z
2022-03-30T10:25:14Z,42.805,6.029,13.3029,4.60089,2470.297,2022-3-30T12:26:51Z
2022-03-30T10:28:17Z,42.805,6.029,13.3031,4.60072,2470.334,2022-3-30T12:29:55Z
2022-03-30T10:31:21Z,42.805,6.029,13.3035,4.60073,2470.343,2022-3-30T12:32:58Z
2022-03-30T10:34:24Z,42.805,6.029,13.3030,4.60067,2470.334,2022-3-30T12:36:01Z
2022-03-30T10:37:27Z,42.805,6.029,13.3032,4.60068,2470.32,2022-3-30T12:39:04Z
2022-03-30T10:40:30Z,42.805,6.029,13.3036,4.60082,2470.31,2022-3-30T12:42:07Z
2022-03-30T10:43:33Z,42.805,6.029,13.3029,4.60075,2470.273,2022-3-30T12:45:10Z
2022-03-30T10:46:36Z,42.805,6.029,13.3030,4.60065,2470.264,2022-3-30T12:48:13Z
2022-03-30T10:49:39Z,42.805,6.029,13.3029,4.60077,2470.297,2022-3-30T12:51:16Z
2022-03-30T10:52:42Z,42.805,6.029,13.3026,4.60079,2470.287,2022-3-30T12:54:20Z
2022-03-30T10:55:46Z,42.805,6.029,13.3021,4.60057,2470.297,2022-3-30T12:57:23Z
2022-03-30T10:58:49Z,42.805,6.029,13.3023,4.60064,2470.273,2022-3-30T13:00:26Z
2022-03-30T11:01:52Z,42.805,6.029,13.3025,4.60055,2470.25,2022-3-30T13:03:29Z
2022-03-30T11:04:55Z,42.805,6.029,13.3026,4.60068,2470.25,2022-3-30T13:06:32Z
2022-03-30T11:07:58Z,42.805,6.029,13.3031,4.60067,2470.25,2022-3-30T13:09:35Z
2022-03-30T11:11:01Z,42.805,6.029,13.3020,4.60064,2470.287,2022-3-30T13:12:38Z
2022-03-30T11:14:04Z,42.805,6.029,13.3028,4.60085,2470.264,2022-3-30T13:15:41Z
2022-03-30T11:17:07Z,42.805,6.029,13.3029,4.60061,2470.264,2022-3-30T13:18:45Z
2022-03-30T11:20:11Z,42.805,6.029,13.3034,4.60062,2470.24,2022-3-30T13:21:48Z
2022-03-30T11:23:14Z,42.805,6.029,13.3026,4.60067,2470.25,2022-3-30T13:24:51Z
2022-03-30T11:26:17Z,42.805,6.029,13.3029,4.60075,2470.264,2022-3-30T13:27:54Z
2022-03-30T11:29:20Z,42.805,6.029,13.3026,4.60061,2470.273,2022-3-30T13:30:57Z
2022-03-30T11:32:23Z,42.805,6.029,13.3029,4.60061,2470.24,2022-3-30T13:34:00Z
2022-03-30T11:35:26Z,42.805,6.029,13.3033,4.60080,2470.25,2022-3-30T13:37:03Z
2022-03-30T11:38:29Z,42.805,6.029,13.3024,4.60067,2470.227,2022-3-30T13:40:06Z
2022-03-30T11:41:32Z,42.805,6.029,13.3015,4.60062,2470.287,2022-3-30T13:43:10Z
2022-03-30T11:44:36Z,42.805,6.029,13.3030,4.60061,2470.264,2022-3-30T13:46:13Z
2022-03-30T11:47:39Z,42.805,6.029,13.3029,4.60055,2470.25,2022-3-30T13:49:16Z
2022-03-30T11:50:42Z,42.805,6.029,13.3021,4.60059,2470.273,2022-3-30T13:52:19Z
2022-03-30T11:53:45Z,42.805,6.029,13.3029,4.60075,2470.25,2022-3-30T13:55:22Z
2022-03-30T11:56:48Z,42.805,6.029,13.3029,4.60071,2470.24,2022-3-30T13:58:25Z
2022-03-30T11:59:51Z,42.805,6.029,13.3028,4.60084,2470.25,2022-3-30T14:01:28Z
2022-03-30T12:02:54Z,42.805,6.029,13.3026,4.60072,2470.227,2022-3-30T14:04:31Z
2022-03-30T12:05:57Z,42.805,6.029,13.3029,4.60077,2470.25,2022-3-30T14:07:35Z
2022-03-30T12:09:01Z,42.805,6.029,13.3027,4.60066,2470.24,2022-3-30T14:10:38Z
2022-03-30T12:12:04Z,42.805,6.029,13.3026,4.60072,2470.227,2022-3-30T14:13:41Z
2022-03-30T12:15:07Z,42.805,6.029,13.3031,4.60064,2470.203,2022-3-30T14:16:44Z
2022-03-30T12:18:10Z,42.805,6.029,13.3030,4.60080,2470.203,2022-3-30T14:19:47Z
2022-03-30T12:21:13Z,42.805,6.029,13.3031,4.60059,2470.217,2022-3-30T14:22:50Z
2022-03-30T12:24:16Z,42.805,6.029,13.3027,4.60067,2470.227,2022-3-30T14:25:53Z
2022-03-30T12:27:19Z,42.805,6.029,13.3030,4.60057,2470.18,2022-3-30T14:28:56Z
2022-03-30T12:30:22Z,42.805,6.029,13.3022,4.60062,2470.227,2022-3-30T14:32:00Z
2022-03-30T12:33:26Z,42.805,6.029,13.3025,4.60061,2470.194,2022-3-30T14:35:03Z
2022-03-30T12:36:29Z,42.805,6.029,13.3025,4.60062,2470.217,2022-3-30T14:38:06Z
2022-03-30T12:39:32Z,42.805,6.029,13.3027,4.60063,2470.18,2022-3-30T14:41:09Z
2022-03-30T12:42:35Z,42.805,6.029,13.3029,4.60064,2470.203,2022-3-30T14:44:12Z
2022-03-30T12:45:38Z,42.805,6.029,13.3026,4.60072,2470.203,2022-3-30T14:47:15Z
2022-03-30T12:48:41Z,42.805,6.029,13.3028,4.60069,2470.194,2022-3-30T14:50:18Z
2022-03-30T12:51:44Z,42.805,6.029,13.3024,4.60069,2470.217,2022-3-30T14:53:21Z
2022-03-30T12:54:47Z,42.805,6.029,13.3024,4.60072,2470.227,2022-3-30T14:56:25Z
2022-03-30T12:57:51Z,42.805,6.029,13.3024,4.60073,2470.217,2022-3-30T14:59:28Z
2022-03-30T13:00:54Z,42.805,6.029,13.3023,4.60072,2470.227,2022-3-30T15:02:31Z
2022-03-30T13:03:57Z,42.805,6.029,13.3025,4.60064,2470.227,2022-3-30T15:05:34Z
2022-03-30T13:07:00Z,42.805,6.029,13.3023,4.60068,2470.25,2022-3-30T15:08:37Z
2022-03-30T13:10:03Z,42.805,6.029,13.3025,4.60068,2470.217,2022-3-30T15:11:40Z
2022-03-30T13:13:06Z,42.805,6.029,13.3026,4.60074,2470.203,2022-3-30T15:14:43Z
2022-03-30T13:16:09Z,42.805,6.029,13.3022,4.60070,2470.217,2022-3-30T15:17:46Z
2022-03-30T13:19:12Z,42.805,6.029,13.3029,4.60064,2470.227,2022-3-30T15:20:50Z
2022-03-30T13:22:16Z,42.805,6.029,13.3026,4.60065,2470.194,2022-3-30T15:23:53Z
2022-03-30T13:25:19Z,42.805,6.029,13.3024,4.60066,2470.194,2022-3-30T15:26:56Z
2022-03-30T13:28:22Z,42.805,6.029,13.3026,4.60075,2470.18,2022-3-30T15:29:59Z
2022-03-30T13:31:25Z,42.805,6.029,13.3029,4.60066,2470.217,2022-3-30T15:33:02Z
2022-03-30T13:34:28Z,42.805,6.029,13.3024,4.60057,2470.203,2022-3-30T15:36:05Z
2022-03-30T13:37:31Z,42.805,6.029,13.3026,4.60069,2470.18,2022-3-30T15:39:08Z
2022-03-30T13:40:34Z,42.805,6.029,13.3021,4.60071,2470.18,2022-3-30T15:42:11Z
2022-03-30T13:43:38Z,42.805,6.029,13.3024,4.60067,2470.203,2022-3-30T15:45:15Z
2022-03-30T13:46:41Z,42.805,6.029,13.3023,4.60069,2470.194,2022-3-30T15:48:18Z
2022-03-30T13:49:44Z,42.805,6.029,13.3018,4.60066,2470.18,2022-3-30T15:51:21Z
2022-03-30T13:52:47Z,42.805,6.029,13.3021,4.60065,2470.217,2022-3-30T15:54:24Z
2022-03-30T13:55:50Z,42.805,6.029,13.3026,4.60069,2470.203,2022-3-30T15:57:27Z
2022-03-30T13:58:53Z,42.805,6.029,13.3020,4.60066,2470.194,2022-3-30T16:00:30Z
2022-03-30T14:01:56Z,42.805,6.029,13.3020,4.60068,2470.171,2022-3-30T16:03:33Z
2022-03-30T14:04:59Z,42.805,6.029,13.3022,4.60069,2470.203,2022-3-30T16:06:36Z
2022-03-30T14:08:03Z,42.805,6.029,13.3024,4.60072,2470.203,2022-3-30T16:09:40Z
2022-03-30T14:11:06Z,42.805,6.029,13.3022,4.60072,2470.227,2022-3-30T16:12:43Z
2022-03-30T14:14:09Z,42.805,6.029,13.3022,4.60067,2470.18,2022-3-30T16:15:46Z
2022-03-30T14:17:12Z,42.805,6.029,13.3024,4.60071,2470.227,2022-3-30T16:18:49Z
2022-03-30T14:20:15Z,42.805,6.029,13.3026,4.60074,2470.227,2022-3-30T16:21:52Z
2022-03-30T14:23:18Z,42.805,6.029,13.3029,4.60069,2470.217,2022-3-30T16:24:55Z
2022-03-30T14:26:21Z,42.805,6.029,13.3022,4.60064,2470.217,2022-3-30T16:27:58Z
2022-03-30T14:29:24Z,42.805,6.029,13.3024,4.60072,2470.24,2022-3-30T16:31:02Z
2022-03-30T14:32:28Z,42.805,6.029,13.3024,4.60069,2470.227,2022-3-30T16:34:05Z
2022-03-30T14:35:31Z,42.805,6.029,13.3023,4.60078,2470.203,2022-3-30T16:37:08Z
2022-03-30T14:38:34Z,42.805,6.029,13.3020,4.60069,2470.264,2022-3-30T16:40:11Z
2022-03-30T14:41:37Z,42.805,6.029,13.3022,4.60062,2470.203,2022-3-30T16:43:14Z
2022-03-30T14:44:40Z,42.805,6.029,13.3022,4.60066,2470.25,2022-3-30T16:46:17Z
2022-03-30T14:47:43Z,42.805,6.029,13.3021,4.60067,2470.25,2022-3-30T16:49:20Z
2022-03-30T14:50:46Z,42.805,6.029,13.3032,4.60078,2470.217,2022-3-30T16:52:23Z
2022-03-30T14:53:49Z,42.805,6.029,13.3024,4.60071,2470.264,2022-3-30T16:55:26Z
2022-03-30T14:56:53Z,42.805,6.029,13.3023,4.60076,2470.24,2022-3-30T16:58:30Z
2022-03-30T14:59:56Z,42.805,6.029,13.3023,4.60071,2470.25,2022-3-30T17:01:33Z
2022-03-30T15:02:59Z,42.805,6.029,13.3027,4.60069,2470.24,2022-3-30T17:04:36Z
2022-03-30T15:06:02Z,42.805,6.029,13.3028,4.60072,2470.227,2022-3-30T17:07:39Z
2022-03-30T15:09:05Z,42.805,6.029,13.3026,4.60077,2470.25,2022-3-30T17:10:42Z
2022-03-30T15:12:08Z,42.805,6.029,13.3026,4.60073,2470.264,2022-3-30T17:13:45Z
2022-03-30T15:15:11Z,42.805,6.029,13.3030,4.60082,2470.25,2022-3-30T17:16:48Z